Showing default

REAL, 64875

Orbit data source: Space-Track

REAL, 64875 is a payload satellite owned by Dartmouth (US) in SSO that was launched on Wed, 23 Jul 2025 UTC via an FALCON 9 launch vehicle from the Air Force Western Test Range (AFWTR). Payload-class satellites include a variety of spacecraft equipped with specific instruments for various scientific and technological missions. These include communications satellites like Starlink; space stations such as the ISS; scientific satellites like the Hubble; Earth observation satellites from companies like Planet Labs, Umbra, and HawkEye 360; GPS; miniature CubeSats for education and research; and military/defense satellites.

Loading next visibility...
Identifier
64875, 2025-154G
Orbit
SSO
Country
Flag of USUS
Related business
Manufacturer
Dartmouth
Mission
Operational spacecraft
Bus & Motor
CUBESAT 3U, Unknown motor
Mass
5 kg wet, 5 kg dry
Launch date (UTC)
2025-07-23 (1 month ago)
Launch vehicle
FALCON 9
Launch site
Air Force Western Test Range (AFWTR)
Object type
Payload
Rocket body
Debris
Shape & HBR
Unknown
Radar Cross Section
Medium (>0.1 m² and <1 m²)

Expand to show TLE details & history
Last TLE update: 10 hours ago

TLE from 10 hours ago
0 REAL
1 64875U 25154G   25242.75401471  .00021234  00000-0  10115-2 0  9993
2 64875  97.4424 308.1328 0001833 107.9563 252.1871 15.19148481  5758
Epoch: 2025-08-30T18:05Z
TLE epoch observation values (Epoch: 2025-08-30T18:05:46.87Z)
Latitude
-0.0001°
Longitude
57.50374°
Altitude
511.887 km
Speed
7.608 km/s
True Right ascension
20h 32m 31s
True Declination
0° 00' 00"
Sunlit
Object was in full shadow at epoch
Visualization orbit readout
Latitude
Unknown
Longitude
Unknown
Altitude
Unknown
Speed
Unknown
Apparent Right ascension
Unknown
Apparent Declination
Unknown
Sunlit
N/A
Visualization observer readout
Local Sidereal Time
19:18:22
Azimuth
Unknown
Elevation
Unknown
Doppler factor
Unknown
Orbital elements
Apogee altitude
506.643 km
Perigee altitude
504.12 km
Semi-major axis
6,883.518 km
Eccentricity
0.00018
Inclination
97.4424°
RAAN
308.1328°
Arg. of periapsis
107.9563°
True anomaly
252.1671°
Mean anomaly
252.1871°
Eccentric anomaly
252.1771°
Mean motion
3.80038 °/min
Orbital period
94.73 mins
BSTAR
0.0010115
Loading maneuver chart data...
Computing Atmospheric mass density...
Loading historical data...
Loading historical data...
Loading historical data...
Loading historical data...
Loading historical data...
Loading historical data...
Loading historical data...

Documentation

Showing up to 5 results
|